Flag for United Kingdom Weather past 2 weeks in Belfast, Northern Ireland, United Kingdom

Now
63 °F

Scattered showers. Scattered clouds.


Feels Like: 63 °F
Forecast: 55 / 65 °F
Wind: 6 mph from South

Location: Belfast / Harbour

Current Time: Jul 31, 2014 at 9:07:38 PM

Latest Report: Jul 31, 2014 at 8:20 PM


Visibility: N/A

Pressure: 29.74 "Hg

Humidity: 83%

Dew point: 57 °F

Location of BelfastLocation

Historic Weather in Belfast — Graph

°F

Belfast temperature yesterday

Maximum temperature yesterday: 70 °F (at 4:50 PM)
Minimum temperature yesterday: 57 °F (at 6:20 AM)
Average temperature yesterday: 64 °F

Past Weeks' High & Low Weather Summary

 TemperatureHumidityPressure
High81 °F (Jul 25, 4:20 PM)100% (Jul 19, 6:20 AM)30.24 "Hg (Jul 19, 6:20 AM)
Low55 °F (Jul 17, 6:20 AM)39% (Jul 25, 4:20 PM)29.74 "Hg (Jul 19, 3:50 PM)
Average66 °F74%30.01 "Hg
* Reported Jul 16 7:20 PM — Jul 31 7:50 PM, Belfast, Weather by CustomWeather, © 2014

Note: Actual official high and low records may vary slightly from our data, if they occured in-between our weather recording intervals... More about our weather records

Advertising

Belfast weather history for previous 24 hours

 ConditionsComfort  
Time TempWeatherWind HumidityBarometerVisibility
7:50 PM
Jul 31
64 °FSprinkles. Passing clouds.3 mph78%29.74 "HgN/A
7:20 PM64 °FPassing clouds.3 mph78%29.74 "HgN/A
6:50 PM64 °FPassing clouds.5 mph78%29.74 "HgN/A
6:20 PM64 °FScattered clouds.3 mph78%29.74 "HgN/A
5:50 PM63 °FScattered showers. Scattered clouds.3 mph77%29.74 "HgN/A
5:20 PM63 °FSprinkles. Scattered clouds.5 mph77%29.77 "HgN/A
4:50 PM66 °FLots of rain. Scattered clouds.6 mph78%29.77 "HgN/A
4:20 PM68 °FScattered showers. Scattered clouds.8 mph69%29.74 "HgN/A
3:50 PM68 °FScattered showers. Scattered clouds.14 mph69%29.74 "HgN/A
3:20 PM68 °FScattered showers. Scattered clouds.15 mph69%29.77 "HgN/A
2:50 PM70 °FScattered showers. Scattered clouds.13 mph60%29.77 "HgN/A
2:20 PM68 °FScattered showers. Broken clouds.15 mph69%29.77 "HgN/A
1:50 PM66 °FSprinkles. Broken clouds.15 mph68%29.80 "HgN/A
1:20 PM66 °FBroken clouds.8 mph68%29.80 "HgN/A
12:50 PM64 °FBroken clouds.13 mph73%29.80 "HgN/A
12:20 PM66 °FBroken clouds.10 mph68%29.83 "HgN/A
11:50 AM64 °FScattered clouds.13 mph73%29.83 "HgN/A
11:20 AM64 °FScattered clouds.9 mph68%29.83 "HgN/A
10:50 AM63 °FScattered clouds.9 mph73%29.83 "HgN/A
10:20 AM64 °FScattered clouds.12 mph68%29.83 "HgN/A
9:50 AM63 °FScattered clouds.9 mph73%29.86 "HgN/A
9:20 AM61 °FScattered clouds.12 mph77%29.86 "HgN/A
8:50 AM61 °FBroken clouds.12 mph77%29.83 "HgN/A
8:20 AM61 °FBroken clouds.10 mph83%29.83 "HgN/A
7:50 AM59 °FScattered showers. Scattered clouds.10 mph82%29.86 "HgN/A
7:20 AM59 °FScattered clouds.10 mph82%29.86 "HgN/A
6:50 AM59 °FDrizzle. Broken clouds.10 mph82%29.86 "HgN/A
9:20 PM
Jul 30
63 °FScattered clouds.5 mph83%29.92 "HgN/A
Weather by CustomWeather, © 2014

See weather overviewHow to use our weather pages